Weather Roundup
Issued by NWS

Home | Current Version | Previous Version | Graphics & Text | Print | Product List | Glossary Off
Versions: 1 2 3 4 5 6 7 8 9 10 11 12 13 14 15 16 17 18 19 20 21 22 23 24 25 26 27 28 29 30 31 32 33 34 35 36 37 38 39 40 41 42 43 44 45 46 47 48 49 50

000
NZUS93 KARX 280410
HRRWXR

CURRENT HOURLY OBSERVATIONS ACROSS
MUCH OF THE UPPER MISSISSIPPI VALLEY
NATIONAL WEATHER SERVICE LA CROSSE WI
1100 PM CDT WED JUL 27 2016


...SOUTHEAST MINNESOTA...


CITY           SKY/WX    TMP DP  RH WIND       PRES   REMARKS
ROCHESTER      MOCLDY    67  67 100 NW5       29.98R
ROCHESTER/MAYO MOCLDY    69  69  98 NW6       29.97R
WINONA         MOCLDY    72  68  88 N5        29.94R
AUSTIN         PTCLDY    68  64  88 CALM      29.98R
ALBERT LEA     CLEAR     68  66  94 NW5       29.99R
DODGE CENTER   CLOUDY    68  66  94 N7        29.98S
PRESTON        CLOUDY    70  67  91 NW5       29.97R
OWATONNA       CLEAR     68  64  88 NW6       29.98R
FARIBAULT      CLEAR     66  66 100 NW3       29.98R
$$

...ELSEWHERE IN MINNESOTA...


CITY           SKY/WX    TMP DP  RH WIND       PRES   REMARKS
MINNEAPOLIS    CLOUDY    70  63  78 N12       29.98S
INTNL FALLS    CLEAR     65  54  67 NE3       30.08R
DULUTH         CLEAR     59  57  93 E9        30.04S
RED WING       CLOUDY    70  66  88 CALM      29.95R
REDWOOD FALLS  CLEAR     69  64  84 NW5       30.01R
MANKATO        PTCLDY    70  63  78 N9        30.00R
WORTHINGTON    CLOUDY    66  63  90 N7        30.04S
FAIRMONT       CLEAR     68  64  88 NW6       30.00R
$$

...SOUTHWEST WISCONSIN...


CITY           SKY/WX    TMP DP  RH WIND       PRES   REMARKS
LA CROSSE      CLOUDY    74  68  81 E7        29.92S
PRAIRIE DU CHI PTCLDY    70  67  88 CALM      29.93S
BOSCOBEL       PTCLDY    70  68  93 CALM      29.93F FOG
LONE ROCK      CLOUDY    69  67  93 CALM      29.93F
PLATTEVILLE    PTCLDY    73  70  92 CALM      29.96S
FORT MC COY    CLOUDY    70  66  88 E6        29.96R
CAMP DOUGLAS   MOCLDY    68  66  94 VRB5      29.95R
MAUSTON-NEW LI CLOUDY    70  69  95 CALM      29.94S
VIROQUA        MOCLDY    70  67  90 CALM      29.96R
WIS DELLS      PTCLDY    70  67  89 SE5       29.94F
$$

...ELSEWHERE IN WISCONSIN...


CITY           SKY/WX    TMP DP  RH WIND       PRES   REMARKS
MILWAUKEE      MOCLDY    74  69  85 SE5       29.95F
MADISON        CLOUDY    76  67  73 S6        29.93F
GREEN BAY      RAIN      70  70 100 N7        29.98R FOG
EAU CLAIRE     CLOUDY    66  65  96 NE5       29.96R
BLACK RVR FLS  CLOUDY    66  66 100 CALM      29.95S
MEDFORD        LGT RAIN  63  63 100 E3        29.99R
WAUSAU         CLOUDY    64  63  96 CALM      29.98S
WIS RAPIDS     CLOUDY    67  63  87 E8        29.98S
MARSHFIELD     MOCLDY    66  63  90 E7        29.97S
RICE LAKE      PTCLDY    63  61  93 CALM      30.01R
$$

...NORTHEAST IOWA...


CITY           SKY/WX    TMP DP  RH WIND       PRES   REMARKS
WATERLOO       CLOUDY    68  66  93 E5        29.94R
DUBUQUE        PTCLDY    71  67  87 CALM      29.96R
DECORAH        MOCLDY    72  68  88 CALM      29.95R
MASON CITY     CLEAR     68  66  93 W7        29.99R
CHARLES CITY   PTCLDY    70  70 100 SW3       29.97R
OELWEIN        CLOUDY    68  66  94 SW6       29.96F
$$

...ELSEWHERE IN IOWA...


CITY           SKY/WX    TMP DP  RH WIND       PRES   REMARKS
DES MOINES     PTCLDY    78  69  73 S3        29.95S
IOWA CITY      CLEAR     73  69  87 W3        29.95S
FORT DODGE     PTCLDY    72  68  88 N5        29.99S
MARSHALLTOWN   PTCLDY    69  67  93 CALM      29.96R
CEDAR RAPIDS   CLEAR     69  69 100 CALM      29.94R
$$

...NORTHERN ILLINOIS...


CITY           SKY/WX    TMP DP  RH WIND       PRES   REMARKS
CHICAGO-OHARE  MOCLDY    77  65  66 VRB5      29.95S
CHICAGO-MIDWAY PTCLDY    81  63  54 SE5       29.95R
MOLINE         PTCLDY    76  69  79 CALM      29.92S
ROCKFORD       MOCLDY    73  68  84 CALM      29.95S
PEORIA         CLOUDY    79  73  82 S7        29.94S
$$

NOTE: "FAIR" INDICATES FEW OR NO CLOUDS BELOW 12,000 FEET WITH NO
SIGNIFICANT WEATHER AND/OR OBSTRUCTIONS TO VISIBILITY. WIND
SPEEDS ARE IN MILES-PER-HOUR.




USA.gov is the U.S. government's official web portal to all federal, state and local government web resources and services.